EDT,Max TemperatureF,Mean TemperatureF,Min TemperatureF,Max Dew PointF,MeanDew PointF,Min DewpointF,Max Humidity, Mean Humidity, Min Humidity, Max Sea Level PressureIn, Mean Sea Level PressureIn, Min Sea Level PressureIn, Max VisibilityMiles, Mean VisibilityMiles, Min VisibilityMiles, Max Wind SpeedMPH, Mean Wind SpeedMPH, Max Gust SpeedMPH,PrecipitationIn, CloudCover, Events, WindDirDegrees
2014-3-1,60,45,30,32,22,11,62,43,24,30.25,30.17,30.11,10,10,10,22,4,25,0.00,6,,195
2014-3-2,66,54,41,52,42,32,89,66,43,30.17,30.02,29.86,10,8,3,25,5,33,0.08,8,Rain,266
2014-3-3,53,38,23,50,28,15,93,81,68,30.25,30.01,29.81,10,4,0,16,9,24,0.93,8,Fog-Rain-Snow,2
2014-3-4,43,32,20,29,22,14,82,66,49,30.24,30.18,30.12,10,10,9,9,3,13,0.00,7,,26
2014-3-5,59,43,27,32,26,17,92,58,24,30.19,30.13,30.06,10,9,4,14,1,25,0.00,3,,349
2014-3-6,52,41,30,26,22,16,78,53,28,30.20,30.12,30.03,10,10,10,13,5,17,T,6,Rain,62
2014-3-7,57,46,34,37,33,29,89,65,40,30.05,29.99,29.91,10,10,7,13,4,18,0.13,5,Rain,67
2014-3-8,65,48,31,38,31,28,92,59,26,30.10,30.03,29.99,10,10,8,17,5,22,0.00,2,,249
2014-3-9,62,48,34,37,29,20,61,42,22,30.14,30.07,30.03,10,10,9,17,7,23,0.00,3,,254
2014-3-10,62,45,28,39,32,23,78,59,39,30.06,29.97,29.85,10,10,9,21,5,28,0.00,2,,232
2014-3-11,71,52,33,42,35,30,92,59,25,29.86,29.78,29.67,10,9,6,17,4,22,0.00,1,,240
2014-3-12,68,50,31,54,39,23,86,72,57,29.83,29.55,29.29,10,8,2,41,11,51,0.06,6,Rain-Snow,265
2014-3-13,42,34,25,26,10,-3,53,34,15,30.22,30.04,29.84,10,9,2,21,11,29,T,3,Snow,283
2014-3-14,62,42,21,26,18,11,77,50,22,30.25,30.14,29.99,10,10,10,21,6,30,0.00,3,,234
2014-3-15,68,55,41,34,28,18,62,39,15,30.06,30.01,29.97,10,10,10,22,8,29,0.00,4,,243
2014-3-16,50,44,38,43,36,29,86,72,57,29.99,29.84,29.69,10,9,5,14,5,21,0.29,7,Rain,48
2014-3-17,43,40,36,38,34,30,92,83,73,29.86,29.74,29.67,10,10,4,13,7,18,0.07,8,Rain,51
2014-3-18,64,50,35,39,33,28,75,57,39,29.99,29.91,29.85,10,10,10,14,6,19,0.00,6,,79
2014-3-19,67,51,35,42,38,32,85,61,37,30.01,29.96,29.87,10,10,10,32,8,41,0.00,3,,241
2014-3-20,59,47,35,43,26,13,77,47,17,30.09,30.03,29.97,10,10,10,21,10,28,0.00,2,,260
2014-3-21,68,48,27,28,22,14,75,44,13,30.15,30.05,29.96,10,10,10,17,3,22,0.00,2,,250
2014-3-22,68,52,35,39,32,29,76,52,28,30.02,29.98,29.94,10,10,10,16,4,20,0.00,5,,251
2014-3-23,53,43,32,36,29,18,76,53,30,30.20,30.06,29.96,10,9,7,17,7,22,0.02,6,Rain,348
2014-3-24,50,37,24,18,12,5,60,39,17,30.26,30.15,30.00,10,10,10,13,4,18,T,2,,355
2014-3-25,41,34,27,30,25,14,89,63,37,30.12,29.95,29.88,10,4,0,24,8,32,0.06,7,Fog-Snow,300
2014-3-26,43,33,23,17,10,4,55,37,19,30.31,30.23,30.11,10,10,10,18,7,25,T,3,,294
2014-3-27,64,43,22,20,15,9,74,44,13,30.31,30.20,30.07,10,10,10,17,7,25,0.00,3,,147
2014-3-28,66,60,54,49,42,22,77,52,26,30.06,30.02,29.99,10,10,9,14,5,20,0.01,7,Rain,245
2014-3-29,65,51,37,55,48,32,89,78,67,30.02,29.78,29.58,10,7,1,24,6,31,0.61,8,Rain,272
2014-3-30,55,44,33,32,28,21,82,55,28,30.15,30.03,29.94,10,9,3,24,9,34,0.01,5,Rain-Snow,284
2014-3-31,70,49,27,33,27,23,85,52,18,30.22,30.14,30.05,10,10,10,6,1,11,0.00,2,,218